Lapse_Rate
7.2 7.2 7.3 7.4 7.3 7.3 7.4 7.4 7.4 7.5 7.5 7.6 7.7 7.7 7.7 7.7 7.6 7.6 7.6 7.6 7.6 7.7 7.6 7.5 7.4 7.4 7.5 7.5 7.5 7.5 7.9 7.9 7.9 7.8 7.8 7.8 7.7 7.7 7.9 8.0 7.9 8.1 7.6 7.4 7.0 7.2 7.0
7.1 7.2 7.3 7.3 7.3 7.3 7.4 7.4 7.5 7.5 7.6 7.7 7.6 7.6 7.6 7.6 7.5 7.6 7.6 7.6 7.6 7.5 7.4 7.3 7.4 7.5 7.7 7.9 7.7 7.6 7.6 7.6 7.6 7.6 7.7 7.7 7.7 7.5 7.4 7.2 7.5 7.6 7.6 7.2 7.1 6.9 6.8
7.0 7.1 7.2 7.2 7.3 7.3 7.3 7.4 7.5 7.5 7.5 7.6 7.6 7.6 7.5 7.5 7.4 7.4 7.5 7.5 7.4 7.4 7.3 7.4 7.6 7.6 7.6 7.6 7.4 7.6 7.4 7.4 7.4 7.5 7.6 7.5 7.4 7.4 7.1 7.4 7.3 7.4 7.4 7.4 7.1 6.5 6.6
6.9 6.9 7.0 7.1 7.2 7.3 7.3 7.4 7.4 7.5 7.5 7.5 7.5 7.4 7.4 7.4 7.3 7.3 7.3 7.3 7.3 7.4 7.5 7.5 8.0 7.3 7.9 7.4 7.4 7.3 7.2 7.1 7.2 7.3 7.2 6.4 6.9 7.2 7.4 7.1 7.2 7.5 7.9 8.5 9.0 8.6 7.0
6.9 6.9 7.0 7.0 7.1 7.2 7.3 7.4 7.5 7.5 7.4 7.4 7.3 7.3 7.4 7.3 7.2 7.1 7.1 7.0 7.2 7.3 7.4 7.6 7.6 7.1 7.3 6.7 7.2 7.3 7.2 6.5 6.9 6.5 5.9 5.8 6.5 6.5 7.4 7.8 8.2 8.2 7.3 7.3 7.6 8.2 7.5
6.7 6.8 6.8 6.9 7.0 7.1 7.2 7.2 7.2 7.2 7.2 7.2 7.2 7.2 7.2 7.1 7.1 7.0 6.9 6.8 7.1 7.2 7.3 7.2 6.8 6.7 7.0 7.1 7.2 7.1 6.9 6.1 6.0 5.7 5.9 6.2 5.9 5.3 4.9 5.0 5.1 5.4 5.8 6.1 6.7 7.0 8.0
6.7 6.8 6.8 6.8 6.9 6.9 7.0 7.1 7.1 7.1 7.1 7.1 7.2 7.2 7.1 6.9 6.9 6.9 6.8 7.1 6.6 7.3 7.2 7.1 7.1 7.1 7.0 7.0 6.7 7.0 7.2 6.3 6.1 6.3 5.9 5.7 6.0 4.7 4.8 5.0 5.0 5.4 5.8 6.5 7.2 7.3 7.7
6.5 6.6 6.6 6.7 6.8 6.8 6.9 6.9 7.0 7.0 7.0 7.1 7.2 7.1 6.8 6.8 6.8 6.9 6.8 6.5 6.6 7.1 7.4 7.2 7.2 7.2 7.1 6.9 6.8 6.7 6.6 6.1 5.5 5.2 6.0 5.7 4.4 4.6 4.7 4.9 5.1 5.5 6.1 6.4 6.9 7.0 7.7
6.5 6.5 6.6 6.6 6.6 6.7 6.7 6.8 6.8 6.9 6.9 7.0 7.1 7.0 6.8 6.8 6.8 6.9 7.0 6.7 6.9 7.2 6.3 7.0 7.2 7.2 6.9 7.0 6.8 6.4 6.5 5.6 5.3 5.4 4.9 4.5 4.4 4.6 4.6 4.9 5.0 5.8 6.0 6.5 7.1 8.5 9.6
6.3 6.4 6.5 6.5 6.5 6.5 6.6 6.7 6.7 6.7 6.8 6.8 6.9 6.8 6.8 6.7 6.8 6.9 6.9 6.9 7.0 7.0 6.9 6.3 6.7 6.8 6.8 6.7 6.1 5.9 6.0 5.3 5.4 5.3 5.1 4.8 4.7 4.4 4.5 4.7 4.9 5.8 6.0 6.9 7.7 9.5 9.6
6.4 6.4 6.4 6.4 6.4 6.4 6.5 6.5 6.6 6.6 6.6 6.8 6.8 6.7 6.8 6.7 6.9 6.9 6.9 7.0 7.1 7.0 7.6 6.5 6.8 7.0 6.7 6.5 5.9 5.8 5.7 5.0 4.6 4.5 5.1 4.4 4.2 4.3 4.5 4.5 4.9 5.4 6.3 7.3 8.6 9.6 9.3
6.2 6.3 6.3 6.3 6.4 6.5 6.5 6.5 6.6 6.6 6.7 6.8 6.8 6.7 6.7 6.8 6.9 7.0 7.0 7.1 7.1 6.9 6.9 6.2 6.3 6.0 5.6 6.2 6.0 5.5 5.1 5.4 5.4 5.1 5.1 4.7 4.3 4.8 4.7 4.8 4.9 5.1 6.0 7.3 9.0 8.9 8.0
6.2 6.3 6.3 6.3 6.3 6.4 6.5 6.6 6.6 6.7 6.7 6.8 6.8 6.7 6.8 6.9 7.1 7.1 7.1 7.1 6.9 7.0 6.8 6.4 6.0 6.2 5.8 6.2 5.8 5.2 5.2 5.3 5.0 5.5 6.0 5.9 4.9 4.5 5.3 4.1 4.6 5.0 5.4 6.7 7.5 8.9 9.1
6.4 6.3 6.4 6.4 6.4 6.4 6.5 6.6 6.7 6.7 6.7 6.8 6.8 6.8 6.8 7.0 7.1 7.2 7.2 7.1 7.1 6.8 6.6 6.9 6.6 6.0 6.0 6.0 5.3 5.1 5.3 5.1 5.5 5.6 5.6 5.7 5.8 5.4 4.1 4.0 4.4 5.5 6.2 6.8 6.9 7.8 9.3
6.4 6.4 6.4 6.5 6.5 6.5 6.6 6.7 6.8 6.9 6.7 6.8 6.8 6.8 6.8 7.0 7.1 7.2 7.1 6.7 6.7 6.9 6.6 6.4 6.2 6.2 6.2 5.5 5.5 5.2 5.0 4.7 4.9 5.2 4.9 4.7 5.4 4.6 4.6 4.6 4.6 5.3 5.9 6.3 6.8 8.0 9.2
6.5 6.5 6.5 6.6 6.6 6.6 6.6 6.8 6.8 6.8 6.8 6.8 6.8 6.9 6.8 7.0 7.1 7.2 7.0 7.0 7.0 7.3 7.0 6.7 6.5 6.2 6.4 5.7 5.6 5.5 5.0 5.2 4.7 4.8 4.2 4.5 4.8 5.1 4.8 4.7 5.3 5.4 5.6 5.8 6.6 7.6 7.7
6.6 6.6 6.6 6.6 6.7 6.6 6.7 6.8 6.8 6.9 6.8 6.7 6.8 6.9 6.8 6.9 7.0 6.9 6.5 7.2 7.3 7.2 7.0 6.8 6.1 5.9 5.7 5.7 5.4 5.2 4.8 4.8 4.9 4.7 4.6 4.3 4.4 5.3 5.4 5.2 5.5 5.5 5.4 6.2 6.8 7.9 7.4
6.6 6.7 6.7 6.7 6.8 6.7 6.7 6.8 6.9 6.8 6.8 6.7 6.7 6.4 6.8 6.9 6.9 6.8 7.1 7.4 7.3 7.0 6.9 6.8 6.7 6.3 5.9 5.8 5.2 5.0 4.7 4.9 4.9 4.9 4.1 4.2 4.3 4.6 5.5 5.6 5.4 4.9 5.8 6.3 6.6 6.8 6.8
6.6 6.7 6.7 6.7 6.8 6.8 6.8 6.7 6.9 6.8 6.7 6.7 6.7 6.9 6.8 6.9 7.0 7.2 7.2 7.1 7.1 6.9 6.8 6.7 6.5 6.3 6.0 5.5 5.1 4.9 4.5 5.3 5.1 4.9 5.0 4.8 4.5 4.9 5.7 4.6 4.8 5.6 5.9 6.2 6.4 6.4 6.7
6.8 6.8 6.8 6.7 6.8 6.7 6.8 6.7 6.8 6.9 6.7 6.7 6.7 6.6 6.8 6.9 7.0 7.1 7.0 7.0 6.9 6.8 6.9 6.6 6.4 6.2 6.1 5.0 4.9 4.7 4.4 4.6 4.9 4.8 4.8 4.6 3.9 4.1 4.7 4.8 5.0 5.5 5.5 5.6 5.7 5.9 6.5
6.8 6.8 6.8 6.8 6.7 6.7 6.7 6.7 6.7 6.8 6.7 6.6 6.7 6.8 6.9 7.1 7.0 7.0 6.9 6.9 6.9 6.8 6.8 6.6 6.4 6.1 5.7 5.0 4.9 4.6 4.2 3.9 4.3 4.9 4.4 4.2 3.9 4.4 4.7 4.9 5.4 5.6 5.2 5.3 5.5 5.5 5.7
6.7 6.7 6.6 6.8 6.7 6.7 6.7 6.6 6.6 6.7 6.7 6.7 6.7 6.7 6.8 6.9 7.0 7.0 7.0 6.7 6.7 6.8 6.7 6.6 6.2 5.7 5.9 5.4 4.9 5.1 4.5 4.2 4.0 3.8 4.2 3.3 3.6 3.8 4.2 4.8 5.2 5.0 4.8 5.0 5.4 5.9 6.1
6.6 6.6 6.5 6.6 6.7 6.6 6.7 6.6 6.5 6.6 6.7 6.7 6.6 6.6 6.6 6.8 6.9 6.7 6.8 6.7 6.2 6.7 6.5 6.4 6.3 6.0 5.8 5.8 5.7 5.6 5.5 5.3 5.0 4.8 3.6 3.6 3.7 3.8 4.5 4.7 4.6 4.9 5.7 5.8 5.5 5.4 5.3
6.7 6.6 6.4 6.5 6.6 6.5 6.6 6.7 6.5 6.5 6.6 6.6 6.6 6.6 6.7 6.7 6.7 6.2 6.8 6.7 6.5 6.5 6.4 6.4 6.2 6.1 6.1 5.8 5.8 5.9 5.8 5.6 5.4 5.3 4.7 4.1 3.6 3.8 4.2 4.6 5.1 5.4 4.8 5.2 5.4 5.2 4.8
6.5 6.4 6.4 6.4 6.4 6.4 6.5 6.5 6.5 6.5 6.5 6.5 6.5 6.5 6.6 6.7 6.4 6.7 6.7 6.6 6.7 6.4 6.3 6.3 6.4 6.1 6.0 5.8 5.6 5.0 4.4 4.4 4.7 4.7 4.3 4.0 3.3 3.7 4.1 4.6 4.9 5.6 5.6 5.1 5.4 6.1 5.7
6.1 6.2 6.1 6.2 6.3 6.4 6.4 6.4 6.4 6.4 6.4 6.5 6.5 6.5 6.6 6.6 6.3 6.7 6.6 6.6 6.5 6.3 6.4 6.4 6.2 6.0 5.8 5.7 5.1 5.1 5.0 5.2 4.9 4.3 3.9 3.5 3.4 3.4 3.9 4.0 5.0 5.3 4.8 5.3 4.9 4.4 4.8
5.9 6.0 6.0 6.0 6.0 6.2 6.2 6.3 6.3 6.2 6.3 6.4 6.4 6.4 6.5 6.6 6.6 6.6 6.6 6.7 6.4 6.2 6.1 6.5 6.3 5.9 5.7 5.5 5.1 4.9 4.9 5.2 5.0 5.0 4.5 4.0 3.5 3.5 3.8 4.1 4.6 5.0 5.0 5.2 4.5 5.2 5.3
5.7 5.8 5.9 5.9 5.9 5.9 6.1 6.2 6.2 6.2 6.1 6.2 6.3 6.3 6.4 6.5 6.6 6.7 6.6 6.6 6.6 6.4 6.1 6.5 6.0 5.9 5.7 5.4 4.6 4.9 4.3 4.8 4.9 5.2 5.0 4.9 4.7 4.4 4.4 4.6 4.8 5.2 5.2 5.2 5.1 5.0 4.9
5.6 5.7 5.8 5.8 5.8 5.7 6.0 6.2 6.1 6.0 6.1 6.1 6.1 6.1 6.2 6.3 6.4 6.5 6.5 6.5 6.6 6.4 6.4 6.2 6.1 5.9 5.8 5.6 5.2 5.1 4.9 4.9 4.8 4.6 5.1 4.8 5.5 5.2 5.2 5.5 5.1 4.8 5.4 4.9 5.1 5.2 4.9
Wind_Speed
18 18 17 16 16 14 14 14 14 14 13 13 12 11 10 9 9 9 10 12 16 17 19 20 19 13 2 24 12 14 21 25 19 19 22 20 15 10 10 13 11 8 6 5 7 9 11
18 18 17 16 15 14 14 13 13 13 13 13 12 10 9 9 9 9 9 10 11 15 15 18 23 18 17 24 15 12 17 15 17 18 20 18 14 10 4 5 8 7 5 4 3 6 8
19 19 18 17 16 16 15 15 14 13 12 12 11 11 9 8 8 8 8 6 7 7 6 7 10 5 26 16 14 17 13 15 15 16 16 19 12 14 15 9 6 10 9 12 10 6 5
20 20 19 18 18 17 16 15 15 14 13 12 11 11 9 8 7 3 0 2 2 6 10 12 12 20 13 11 17 14 9 6 11 15 13 14 21 15 20 10 11 6 10 11 13 4 12
20 20 20 19 19 18 17 16 15 15 14 13 13 12 12 10 4 2 6 6 6 7 9 13 5 9 10 18 18 15 15 8 3 10 17 13 18 21 22 20 16 15 11 17 18 13 13
21 21 21 21 20 19 18 18 17 16 16 16 14 12 12 8 4 6 10 5 8 7 8 8 11 12 12 13 16 15 13 11 4 9 18 19 10 15 14 15 11 12 15 13 14 15 20
21 22 22 22 22 20 19 18 18 18 17 17 15 12 10 9 4 6 11 7 5 8 18 18 13 14 13 4 18 18 15 16 15 17 11 21 16 18 19 16 14 14 16 15 15 21 19
22 23 23 23 22 21 20 19 19 18 17 18 15 11 9 6 7 10 8 6 9 9 12 14 15 11 9 15 11 20 17 8 11 14 18 6 18 17 15 15 15 16 15 19 19 19 16
23 23 23 23 23 22 21 19 19 17 17 18 16 11 7 4 6 6 5 4 8 8 3 7 9 12 7 8 15 20 16 9 9 8 14 15 12 15 16 16 18 15 18 19 24 22 17
23 23 24 24 24 23 21 20 19 18 17 17 16 11 5 2 0 7 2 3 5 5 4 4 8 6 14 1 7 15 11 11 12 9 4 8 11 15 16 18 18 13 22 24 24 17 7
23 23 24 24 25 24 22 21 19 18 16 16 17 12 5 4 1 3 5 1 3 2 3 3 5 2 10 9 8 12 9 3 6 8 8 4 8 14 18 18 17 20 24 23 17 6 4
22 23 24 24 25 24 23 21 20 18 15 13 12 11 8 4 3 4 3 1 2 4 3 4 3 3 5 8 8 5 11 9 2 4 13 12 10 11 15 12 13 19 23 17 11 7 3
22 23 24 25 25 25 24 23 20 18 14 11 8 11 7 7 3 1 2 3 1 4 0 4 3 2 1 7 7 8 8 17 13 10 11 7 11 9 15 12 9 20 20 8 10 9 8
22 23 24 26 26 26 26 24 22 19 13 9 6 9 7 7 5 2 3 4 6 2 4 3 1 2 3 7 4 3 10 9 14 15 7 8 4 11 10 8 13 16 14 7 13 11 13
22 23 24 26 27 27 27 26 24 20 15 8 8 3 2 4 4 3 4 5 0 5 3 1 3 6 6 5 3 4 5 8 7 12 7 7 3 3 6 6 10 9 13 10 11 11 9
22 23 24 26 27 28 28 27 25 22 15 8 4 3 3 3 3 2 2 0 2 3 2 1 4 3 5 5 3 6 8 4 4 6 7 7 6 2 7 3 8 7 9 8 8 6 13
22 23 24 26 28 29 29 28 27 24 16 8 3 3 2 1 2 4 2 4 5 5 3 4 2 2 2 4 3 3 3 4 2 5 4 8 4 8 12 2 6 5 8 6 8 3 10
22 23 24 26 28 29 30 29 28 25 21 2 3 1 2 1 1 3 3 4 3 6 1 2 2 3 3 3 3 2 4 4 4 4 6 5 4 10 7 6 3 7 7 8 7 11 11
21 23 24 26 28 29 30 30 28 24 16 5 3 3 2 2 3 1 5 6 2 5 3 2 2 2 1 2 3 1 2 5 2 4 6 9 2 6 4 5 8 10 10 11 10 8 11
20 22 23 25 27 29 31 31 29 25 16 3 4 2 2 4 2 7 7 6 4 2 4 1 2 1 2 4 3 3 2 4 2 3 5 2 5 7 7 12 14 13 12 12 8 9 11
18 20 22 24 26 28 31 32 31 28 21 2 1 1 2 2 2 6 5 7 7 4 3 5 3 6 2 3 4 5 1 4 9 9 3 3 6 10 12 18 15 4 13 14 11 8 10
17 19 21 23 25 27 30 32 33 32 24 3 1 0 3 2 5 6 2 7 8 4 7 5 5 4 3 3 2 5 6 6 6 10 5 7 7 13 17 3 3 15 14 13 14 8 7
14 16 19 21 24 26 29 31 34 34 22 2 0 1 3 2 6 5 5 6 7 7 2 5 4 2 5 3 4 6 6 7 8 6 8 8 6 9 6 8 10 13 4 10 10 8 4
12 14 17 19 21 24 27 29 31 32 24 5 4 4 1 3 6 4 3 5 7 6 2 3 2 3 4 2 5 6 6 7 9 10 9 7 9 7 9 12 4 2 6 7 7 11 11
10 12 14 17 19 21 24 27 29 30 29 5 5 4 3 2 6 3 6 6 8 3 2 3 2 6 2 2 4 5 4 5 8 13 11 9 6 5 4 8 17 11 7 4 4 13 10
10 10 11 14 17 20 22 25 27 29 29 4 6 5 2 2 2 3 8 8 5 4 4 5 4 2 2 3 1 1 3 3 1 4 8 7 8 5 5 5 4 4 6 4 3 4 5
9 8 8 11 14 17 20 22 24 27 26 10 4 8 2 0 3 4 4 7 3 3 1 5 5 3 4 3 1 3 4 1 3 4 6 6 7 11 10 8 9 11 10 5 3 3 1
8 8 7 8 11 14 17 20 22 26 26 14 4 8 2 1 3 4 2 1 1 3 4 5 4 3 4 2 2 4 3 1 3 7 5 5 3 4 5 4 7 12 9 5 2 1 4
10 8 7 6 7 11 14 16 20 23 27 20 2 5 6 3 2 5 6 6 6 6 1 5 3 2 4 3 3 3 3 3 6 4 2 5 7 2 4 4 7 11 11 9 9 7 6
Wind_Direction
22 21 20 19 18 16 13 11 10 8 8 9 9 5 1 358 357 357 349 344 342 344 343 341 344 314 42 58 32 9 348 12 26 24 24 14 15 341 14 345 343 310 97 56 72 65 32
23 23 21 20 19 16 13 12 11 11 9 9 5 359 357 357 350 346 346 347 333 327 338 339 19 67 66 64 7 11 15 24 26 24 34 22 7 342 331 6 340 356 336 139 32 51 76
24 23 23 21 19 16 14 12 11 12 13 12 7 5 0 352 347 342 342 334 310 316 330 337 317 7 52 36 19 357 56 41 33 31 29 22 7 25 338 343 341 303 261 223 193 72 72
23 23 22 21 20 18 15 13 12 12 13 15 16 15 3 359 350 336 245 189 174 287 297 302 306 81 72 39 12 7 7 26 30 41 51 38 36 25 6 312 256 249 277 267 134 177 93
24 23 23 22 20 18 16 14 13 13 13 14 16 13 10 9 352 188 187 204 233 268 280 288 296 99 57 30 25 2 356 16 125 52 29 45 33 41 18 355 18 48 342 333 322 0 3
23 23 22 22 20 18 16 13 12 11 12 13 10 9 13 19 321 303 297 300 295 266 247 235 5 122 35 35 25 6 358 16 75 140 62 40 42 35 42 31 19 329 315 307 297 350 343
22 22 21 21 19 18 16 12 11 7 7 9 7 4 360 19 4 342 318 274 203 54 55 67 60 73 37 42 42 19 350 36 31 37 51 47 39 31 16 24 0 323 320 307 336 342 319
21 20 19 20 18 16 15 11 9 6 3 2 1 358 346 359 0 311 300 344 48 135 83 70 80 80 45 43 28 22 354 25 67 64 20 96 36 14 13 20 355 343 354 338 318 318 304
21 19 17 18 16 14 13 10 7 1 360 360 355 348 330 318 318 295 339 59 58 4 120 91 78 38 33 41 34 17 3 349 4 54 73 66 33 11 19 14 358 342 357 324 312 305 278
20 19 16 15 15 11 9 7 5 358 355 358 359 351 347 244 54 225 201 158 45 357 196 75 30 34 12 43 64 22 359 4 48 9 108 61 29 15 19 12 0 349 336 321 308 288 352
18 17 16 12 12 9 6 5 2 355 348 350 4 355 351 257 44 190 105 76 359 256 241 63 73 325 62 58 328 19 48 356 62 41 44 66 21 20 20 3 5 346 334 323 313 344 70
16 15 14 12 9 7 4 2 359 353 344 341 356 358 320 246 21 62 119 316 279 238 74 116 86 32 48 58 40 14 51 26 253 294 111 105 94 46 16 6 7 347 353 352 31 71 75
15 14 12 9 7 5 3 360 356 352 342 330 340 14 4 17 65 96 248 226 229 79 219 110 67 15 54 29 28 23 349 45 32 353 352 135 66 94 24 9 354 6 9 1 6 357 354
14 11 10 7 4 3 2 358 354 353 347 320 305 323 63 49 7 2 240 221 78 37 43 83 41 176 61 2 105 1 18 27 31 3 316 346 294 34 18 20 349 11 16 14 327 335 309
12 10 8 4 3 1 0 358 354 354 355 328 299 208 81 23 342 305 254 51 58 26 57 147 200 282 119 115 292 286 73 22 42 18 10 3 18 110 70 353 21 352 13 341 336 318 322
11 7 7 3 1 360 359 359 356 354 356 348 278 181 56 342 357 258 245 152 111 42 94 246 328 352 354 24 274 5 22 36 16 49 334 3 297 161 129 282 43 28 2 341 347 318 326
11 6 5 3 1 360 358 358 357 353 350 339 257 214 44 32 310 240 130 84 123 78 4 339 33 292 22 350 338 4 50 114 35 351 312 332 276 303 295 131 23 347 0 350 324 322 330
13 7 3 3 0 359 358 357 358 356 347 282 273 206 61 211 226 46 118 127 86 142 72 100 36 16 341 350 310 356 359 29 47 344 334 44 300 290 337 119 109 270 353 334 329 324 317
12 7 4 3 0 359 357 356 358 359 4 313 265 96 142 237 124 115 136 123 103 169 167 169 119 348 40 334 307 256 29 93 106 318 9 354 324 310 167 181 203 301 326 327 313 309 284
7 6 4 3 1 359 357 355 356 357 360 300 284 49 128 218 180 160 161 168 143 320 122 183 105 218 216 228 159 304 277 129 193 275 79 342 262 252 263 287 285 301 310 311 299 283 309
2 3 3 1 1 358 357 354 354 355 353 299 99 314 65 263 242 171 201 160 151 176 237 207 186 245 272 282 270 233 235 212 188 159 215 243 281 295 299 292 291 308 295 293 279 258 267
0 3 2 1 0 360 358 356 355 355 350 256 346 257 197 155 161 156 130 213 187 128 163 195 254 146 232 271 294 298 329 280 260 150 218 228 271 298 295 297 201 287 279 268 272 288 284
353 0 2 2 1 1 359 359 356 359 349 350 47 213 276 136 187 201 204 181 200 148 190 326 233 241 228 5 9 330 309 291 278 265 250 251 292 308 283 311 271 277 263 231 263 281 297
346 357 1 1 1 1 359 360 359 358 8 294 13 303 168 248 205 217 174 167 167 185 329 159 260 258 75 353 292 242 239 245 248 244 239 266 289 292 288 308 288 157 188 176 223 263 264
342 351 358 360 0 1 359 360 0 358 0 6 6 326 332 254 225 156 167 166 117 110 127 167 148 52 17 292 277 283 231 242 234 224 222 224 268 284 288 302 280 285 154 225 284 293 284
329 342 353 358 360 359 0 0 0 358 359 335 43 312 318 333 212 170 177 167 172 197 155 157 84 63 283 273 263 258 263 328 194 195 196 218 218 254 299 296 289 49 144 103 325 262 133
310 320 341 355 357 358 359 358 359 358 359 342 53 4 48 70 56 325 167 206 248 208 270 123 150 196 249 236 142 261 281 54 265 261 185 209 229 238 247 254 262 260 125 134 268 51 28
283 297 321 341 352 358 357 355 356 355 356 354 78 18 17 282 56 353 1 141 94 246 209 114 147 193 186 265 243 240 251 298 284 258 266 237 220 228 230 254 265 106 125 198 57 188 292
263 272 288 316 341 355 355 354 354 353 352 350 56 40 328 111 20 356 40 23 17 16 334 175 191 156 215 213 255 340 297 251 259 270 312 237 216 238 237 253 141 189 219 201 243 262 291